Regional Weather Roundup
Issued by NWS

Home | Current Version | Previous Version | Text Only | Print | Product List | Glossary On
Versions: 1 2 3 4 5 6 7 8 9 10 11 12 13 14 15 16 17 18 19 20 21 22 23 24 25 26 27 28 29 30 31 32 33 34 35 36 37 38 39 40 41 42 43 44 45 46 47 48 49 50
000
ASUS43 KMPX 201801
RWRMN
WEATHER ROUNDUP FOR MINNESOTA
NATIONAL WEATHER SERVICE TWIN CITIES/CHANHASSEN MN
1200 PM CST MON NOV 20 2017


NOTE: "FAIR" INDICATES FEW OR NO CLOUDS BELOW 12,000 FEET WITH NO
SIGNIFICANT WEATHER AND/OR OBSTRUCTIONS TO VISIBILITY. N/A MEANS
CURRENT SKY AND/OR WEATHER CONDITIONS ARE NOT AVAILABLE.

MNZ060>063-068>070-201900-
   Twin Cities Metro

CITY           SKY/WX    TMP DP  RH WIND       PRES   REMARKS
TWIN CITIES    PTSUNNY   43  29  57 S9        29.50F
6HR MIN TEMP:  28; 6HR MAX TEMP:  43;

ST PAUL        CLOUDY    43  31  62 SE8       29.51F
CRYSTAL        CLOUDY    42  26  53 S9        29.49F
LAKEVILLE      CLOUDY    43  30  61 S7        29.50F
EDEN PRAIRIE   MOSUNNY   43  28  55 S12       29.49F
6HR MIN TEMP:  29; 6HR MAX TEMP:  43;

SOUTH ST PAUL  MOSUNNY   43  29  59 S8        29.50F
LAKE ELMO      FAIR      43  32  65 S13G18    29.51F
$$
MNZ001>005-007-008-013>017-022>024-027-028-201900-
   Northwest Minnesota

CITY           SKY/WX    TMP DP  RH WIND       PRES   REMARKS
BEMIDJI        CLOUDY    39  26  58 S8        29.32F
HALLOCK        CLOUDY    34  30  86 S12       29.26F WCI  25
ROSEAU         CLOUDY    37  30  75 SW17      29.25F
WARROAD        CLOUDY    37  28  70 SW8       29.27F
CROOKSTON      CLOUDY    37  27  65 SW13      29.34F
FOSSTON        CLOUDY    39  27  60 SW18      29.34F
DETROIT LAKES  CLOUDY    41  27  56 SW7       29.38S
MOORHEAD       CLOUDY    39  27  60 SW8       29.39S
PARK RAPIDS    CLOUDY    39  29  67 S5        29.35F
MAHNOMEN       FAIR      41  26  56 SW18      29.36S
$$
MNZ006-009>011-018-025>026-201900-
   North Central Minnesota

CITY           SKY/WX    TMP DP  RH WIND       PRES   REMARKS
BAUDETTE       CLOUDY    38  25  59 S13       29.26F
FLAG ISLAND    CLOUDY    32  27  80 S16       29.21F WCI  21
INTL FALLS     CLOUDY    38  24  57 VRB3      29.32F
6HR MIN TEMP:  18; 6HR MAX TEMP:  38;

WASKISH        CLOUDY    41  27  56 S12G18    29.31F
BIG FORK       CLOUDY    37  27  65 S8        29.34F
LONGVILLE      CLOUDY    39  27  60 S9        29.36F
GRAND RAPIDS   CLOUDY    36  27  69 S12       29.39F
CRANE LAKE     CLOUDY    34  27  75 S6        29.39F WCI  29
ORR            CLOUDY    36  23  60 SE9G16    29.33F
COOK           CLOUDY    36  25  64 S7        29.38F
WALKER         FAIR      40  26  55 SW6       29.34F
$$
MNZ012-019>021-037-201900-
   Northeast Minnesota

CITY           SKY/WX    TMP DP  RH WIND       PRES   REMARKS
DULUTH         CLOUDY    31  26  82 SE8       29.44F WCI  23
6HR MIN TEMP:  21; 6HR MAX TEMP:  31;

ELY            CLOUDY    36  25  64 S8        29.40F
HIBBING        CLOUDY    34  25  69 SE8       29.40F WCI  27
EVELETH        CLOUDY    34  25  69 SE7       29.41F WCI  28
DULUTH HARBOR  CLOUDY    34  28  80 E5        29.49F WCI  30
TWO HARBORS    CLOUDY    37  30  75 E6        29.45F
SILVER BAY     CLOUDY    34  28  80 E5        29.47F WCI  30
GRAND MARAIS     N/A     37  30  75 SE6       29.52F
G MARAIS ARPRT CLOUDY    30  23  74 SE5       29.47F WCI  25
$$
MNZ029>031-032-039>041-046>048-054>057-064-201900-
   West Central Minnesota

CITY           SKY/WX    TMP DP  RH WIND       PRES   REMARKS
FERGUS FALLS   CLOUDY    41  27  56 S10       29.42F
WHEATON        MOSUNNY   45  27  49 S3        29.41F
MORRIS         CLOUDY    41  28  60 S12       29.41F
ALEXANDRIA     CLOUDY    39  27  62 S12       29.41F
ELBOW LAKE     FAIR      40  29  62 SW13      29.41F
WADENA         CLOUDY    39  27  60 S10       29.36F
GLENWOOD       MOSUNNY   39  28  65 S10       29.43F
APPLETON       CLOUDY    45  28  53 S3        29.44F
BENSON         CLOUDY    41  28  60 SW8       29.46F
ORTONVILLE     CLOUDY    43  27  52 MISG      29.43F
MADISON        CLOUDY    48  28  46 W5        29.44F
WILLMAR        FAIR      39  32  75 SW5       29.49R
$$
MNZ033>034-036-042>043-049>051-058-059-201900-
   Central Minnesota

CITY           SKY/WX    TMP DP  RH WIND       PRES   REMARKS
ST CLOUD       CLOUDY    36  29  75 S9        29.46F
6HR MIN TEMP:  22; 6HR MAX TEMP:  36;

SAUK CENTRE    FAIR      35  29  79 S8        29.44F WCI  28
PAYNESVILLE    PTSUNNY   36  31  81 S7        29.47F
AITKIN         CLOUDY    37  27  65 S8        29.38F
PINE RIVER     CLOUDY    37  28  70 SE5       29.41F
BRAINERD       CLOUDY    40  27  59 S13       29.39F
STAPLES        CLOUDY    37  27  65 S13       29.38F
LONG PRAIRIE   FAIR      34  28  80 SE9       29.44F WCI  26
LITTLE FALLS   CLOUDY    34  25  69 S7        29.45F WCI  28
LITCHFIELD     CLOUDY    39  30  70 S3        29.48F
BUFFALO        CLOUDY    38  28  69 S6        29.50S
MAPLE LAKE     CLOUDY    38  31  77 S6        29.50F
HUTCHINSON     CLOUDY    40  31  71 S6        29.49F
$$
MNZ037-044-045-052-053-201900-
   East Central Minnesota

CITY           SKY/WX    TMP DP  RH WIND       PRES   REMARKS
PRINCETON      CLOUDY    39  30  70 S6        29.48F
MORA           CLOUDY    36  30  80 S8        29.50F
CAMBRIDGE      CLOUDY    41  28  60 S7        29.48F
RUSH CITY      CLOUDY    37  29  73 S8        29.48F
MOOSE LAKE     CLOUDY    37  28  70 S6        29.42F
HINCKLEY       FAIR      37  32  81 S7        29.47F
CLOQUET        CLOUDY    30  25  80 E5        29.44F WCI  25
MCGREGOR       CLOUDY    41  30  65 S5        29.41F
$$
MNZ071>073-080-081-089-090-097-098-201900-
   Southwest Minnesota

CITY           SKY/WX    TMP DP  RH WIND       PRES   REMARKS
MONTEVIDEO     CLOUDY    43  30  61 W3        29.46F
GRANITE FALLS  CLOUDY    45  30  55 S8        29.48F
CANBY          CLOUDY    49  25  40 SW16G23   29.46S
MARSHALL       CLOUDY    44  26  49 W16       29.47F
REDWOOD FALLS  CLOUDY    46  27  47 SW10      29.48F
OLIVIA         CLOUDY    41  30  65 S7        29.47F
PIPESTONE      CLOUDY    41  27  56 SW9       29.50F
WINDOM         CLOUDY    46  27  46 SW22      29.49F
WORTHINGTON    CLOUDY    43  26  51 SW16      29.50F
JACKSON        CLOUDY    45  27  49 SW17G23   29.52F
SLAYTON        CLOUDY    41  27  57 SW17      29.51S
$$
MNZ065>067-074>077-082>085-091>093-201900-
   South Central Minnesota

CITY           SKY/WX    TMP DP  RH WIND       PRES   REMARKS
MANKATO        CLOUDY    43  29  57 S13       29.51F
NEW ULM        CLOUDY    46  28  49 CALM      29.49F
ST JAMES       MOSUNNY   46  28  49 S12       29.51F
FAIRMONT       CLOUDY    47  30  51 SW14      29.53F
GLENCOE        CLOUDY    40  30  67 S7        29.49F
FARIBAULT      CLOUDY    46  30  53 S12       29.51F
OWATONNA       CLOUDY    46  30  53 S20       29.52F
WASECA         MOSUNNY   45  30  57 S18       29.53F
ALBERT LEA     CLOUDY    46  27  46 SW15G22   29.53F
$$
MNZ078>079-086>088-094>096-201900-
   Southeast Minnesota

CITY           SKY/WX    TMP DP  RH WIND       PRES   REMARKS
ROCHESTER      CLOUDY    45  32  60 S21       29.56F
6HR MIN TEMP:  30; 6HR MAX TEMP:  45;

RED WING       CLOUDY    46  27  46 S10       29.52F
STANTON        CLOUDY    45  32  60 S13       29.49F
DODGE CENTER   CLOUDY    45  30  57 S23G29    29.53F
WINONA         CLOUDY    48  30  49 S8G17     29.59F
AUSTIN         CLOUDY    46  30  53 S17       29.56F
PRESTON        CLOUDY    45  30  56 S18G24    29.58F
$$
ABBREVIATIONS USED IN REMARKS
   TC - TEMPERATURES IN CELSIUS
  WCI - WIND CHILL INDEX
   HX - HEAT INDEX
  VSB - VISIBILITY
$$




USA.gov is the U.S. government's official web portal to all federal, state and local government web resources and services.